Location: Johnson City
(36.3130°N, 82.3540°W)
Time: 04:56:36
(UTC-04:00)

Envisat - Visible Passes

Search period start: 09 May 2021 00:00
Search period end: 19 May 2021 00:00
Orbit: 764 x 766 km, 98.1° (Epoch: 08 May)

Date Brightness Start Highest point End Pass type
(mag) Time Alt. Az. Time Alt. Az. Time Alt. Az.
10 May 6.0 05:38:34 10° ENE 05:40:36 12° E 05:42:36 10° ESE visible
15 May 5.7 05:51:16 10° NE 05:54:39 18° E 05:58:01 10° SE visible
18 May 5.9 05:40:37 10° ENE 05:43:05 13° E 05:45:33 10° ESE visible
